GW4912 Weather Reports


time (UTC)temp
C
wind
direction
speed
KPH
gust
KPH
rain 1hr
cm
rain 24hr
cm
rain mn
cm
humidity
%
barometer
mb
20260503224923 15 24 9.7 19.3 0.00 0.00 0.00 43 1011.8
20260503224420 15 7 6.4 24.1 0.00 0.00 0.00 43 1011.8
20260503223918 15 350 12.9 20.9 0.00 0.00 0.00 44 1011.7
20260503223416 15 14 8.0 20.9 0.00 0.00 0.00 44 1011.7
20260503222916 15 12 11.3 14.5 0.00 0.00 0.00 45 1011.8
20260503222415 15 36 8.0 20.9 0.00 0.00 0.00 44 1011.9
20260503221913 15 22 9.7 20.9 0.00 0.00 0.00 44 1011.8
20260503221411 16 302 11.3 17.7 0.00 0.00 0.00 42 1011.8
20260503220907 15 4 16.1 22.5 0.00 0.00 0.00 42 1012.0
20260503220404 15 355 12.9 20.9 0.00 0.00 0.00 43 1011.9
20260503215901 15 352 11.3 17.7 0.00 0.00 0.00 44 1011.8
20260503215358 15 349 9.7 17.7 0.00 0.00 0.00 43 1011.9
20260503214855 15 317 11.3 14.5 0.00 0.00 0.00 44 1011.9
20260503214353 16 349 17.7 24.1 0.00 0.00 0.00 41 1011.9
20260503213850 16 321 11.3 16.1 0.00 0.00 0.00 43 1011.8
20260503213348 16 12 9.7 12.9 0.00 0.00 0.00 44 1012.0
20260503212844 16 356 17.7 24.1 0.00 0.00 0.00 41 1011.9
20260503212342 16 318 8.0 20.9 0.00 0.00 0.00 41 1011.9
20260503211839 16 330 8.0 29.0 0.00 0.00 0.00 41 1012.1
20260503211336 15 350 9.7 22.5 0.00 0.00 0.00 43 1012.0
20260503210831 15 337 9.7 22.5 0.00 0.00 0.00 42 1012.1
20260503210329 15 1 17.7 29.0 0.00 0.00 0.00 42 1012.1
20260503205823 15 350 12.9 20.9 0.00 0.00 0.00 46 1012.1
20260503205320 15 57 9.7 17.7 0.00 0.00 0.00 45 1012.0
20260503204817 15 16 11.3 17.7 0.00 0.00 0.00 45 1011.9
20260503204315 15 22 14.5 20.9 0.00 0.00 0.00 45 1012.2
20260503203812 15 16 8.0 17.7 0.00 0.00 0.00 45 1012.1
20260503203309 15 12 16.1 24.1 0.00 0.00 0.00 45 1012.2
20260503202806 15 31 8.0 16.1 0.00 0.00 0.00 46 1012.2
20260503202304 15 15 9.7 27.4 0.00 0.00 0.00 44 1012.3
20260503201801 16 327 8.0 25.7 0.00 0.00 0.00 43 1012.4
20260503201258 16 359 11.3 17.7 0.00 0.00 0.00 42 1012.3
20260503200756 16 3 11.3 19.3 0.00 0.00 0.00 43 1012.3
20260503200251 15 2 8.0 20.9 0.00 0.00 0.00 43 1012.4
20260503195749 15 5 11.3 17.7 0.00 0.00 0.00 44 1012.5
20260503195245 16 7 14.5 24.1 0.00 0.00 0.00 42 1012.4
20260503194743 16 23 8.0 22.5 0.00 0.00 0.00 44 1012.7
20260503194238 17 14 14.5 24.1 0.00 0.00 0.00 43 1012.6
20260503193735 16 19 12.9 17.7 0.00 0.00 0.00 42 1012.7
20260503193231 16 4 8.0 17.7 0.00 0.00 0.00 42 1013.0
20260503192727 16 345 8.0 24.1 0.00 0.00 0.00 43 1013.0
20260503192222 16 24 12.9 25.7 0.00 0.00 0.00 42 1013.0
20260503191719 16 297 4.8 27.4 0.00 0.00 0.00 43 1013.0
20260503191216 15 12 11.3 14.5 0.00 0.00 0.00 42 1013.4
20260503190713 15 0 19.3 25.7 0.00 0.00 0.00 41 1013.3
20260503190210 16 10 8.0 16.1 0.00 0.00 0.00 43 1013.3
20260503185707 16 6 17.7 27.4 0.00 0.00 0.00 44 1013.5
20260503185202 15 19 16.1 22.5 0.00 0.00 0.00 46 1013.5
20260503184657 15 353 9.7 19.3 0.00 0.00 0.00 45 1013.4
20260503184154 15 354 14.5 19.3 0.00 0.00 0.00 44 1013.6
20260503183650 16 339 8.0 16.1 0.00 0.00 0.00 48 1013.7
20260503183148 16 1 14.5 20.9 0.00 0.00 0.00 43 1013.7
20260503182645 16 26 12.9 22.5 0.00 0.00 0.00 45 1013.7
20260503182144 15 341 8.0 24.1 0.00 0.00 0.00 46 1013.5
20260503181640 16 3 17.7 22.5 0.00 0.00 0.00 42 1013.7
20260503181137 15 26 12.9 16.1 0.00 0.00 0.00 44 1013.8
20260503180634 16 342 4.8 19.3 0.00 0.00 0.00 47 1014.0
20260503180132 15 346 6.4 22.5 0.00 0.00 0.00 46 1014.1
20260503175629 16 301 11.3 22.5 0.00 0.00 0.00 45 1014.0
20260503175126 16 17 11.3 22.5 0.00 0.00 0.00 42 1014.2
20260503174622 16 313 11.3 17.7 0.00 0.00 0.00 47 1014.1
20260503174120 16 349 17.7 19.3 0.00 0.00 0.00 47 1014.3
20260503173614 16 316 6.4 11.3 0.00 0.00 0.00 47 1014.1
20260503173111 15 0 17.7 20.9 0.00 0.00 0.00 47 1014.6
20260503172608 15 22 14.5 20.9 0.00 0.00 0.00 45 1014.4
20260503172106 16 326 8.0 9.7 0.00 0.00 0.00 50 1014.4
20260503171602 15 26 8.0 17.7 0.00 0.00 0.00 47 1014.6
20260503171059 15 346 6.4 22.5 0.00 0.00 0.00 47 1014.8
20260503170555 15 331 11.3 16.1 0.00 0.00 0.00 51 1014.6
20260503150948 12 348 3.2 16.1 0.00 0.00 0.00 54 1015.8
20260503150445 13 305 4.8 11.3 0.00 0.00 0.00 56 1015.9
20260503131337 8 42 9.7 14.5 0.00 0.00 0.00 60 1016.3
20260503130835 8 37 8.0 16.1 0.00 0.00 0.00 59 1016.5
20260503130333 7 327 3.2 14.5 0.00 0.00 0.00 60 1016.6
20260503110726 2 38 4.8 8.0 0.00 0.00 0.00 81 1016.5
20260503110223 2 25 6.4 9.7 0.00 0.00 0.00 81 1016.2
20260503100149 1 39 3.2 6.4 0.00 0.00 0.00 84 1015.8
20260503090109 1 32 4.8 4.8 0.00 0.00 0.00 84 1015.9
20260503081544 1 34 1.6 6.4 0.00 0.00 0.00 84 1016.0
20260503081042 1 39 1.6 4.8 0.00 0.00 0.00 84 1016.0
20260503080537 2 18 1.6 8.0 0.00 0.00 0.00 84 1016.3
20260503072512 2 35 4.8 6.4 0.00 0.00 0.00 86 1016.1
20260503072009 2 33 6.4 6.4 0.00 0.00 0.00 86 1016.0
20260503071506 2 33 1.6 6.4 0.00 0.00 0.00 86 1016.0
20260503071002 2 23 3.2 6.4 0.00 0.00 0.00 85 1016.2
20260503070459 2 51 3.2 8.0 0.00 0.00 0.00 86 1016.0
20260503054917 2 48 3.2 4.8 0.00 0.00 0.00 88 1016.4
20260503054413 2 33 3.2 4.8 0.00 0.00 0.00 88 1016.3
20260503053911 2 39 3.2 6.4 0.00 0.00 0.00 87 1016.6
20260503053409 2 64 1.6 6.4 0.00 0.00 0.00 87 1016.4
20260503052905 2 42 3.2 6.4 0.00 0.00 0.00 86 1016.3
20260503052402 3 56 3.2 4.8 0.00 0.00 0.00 86 1016.3
20260503051858 3 38 3.2 6.4 0.00 0.00 0.00 86 1016.4
20260503051354 3 54 6.4 6.4 0.00 0.00 0.00 86 1016.5
20260503050852 3 66 4.8 6.4 0.00 0.00 0.00 86 1016.2
20260503050348 3 3 3.2 6.4 0.00 0.00 0.00 86 1016.4
20260503045845 3 45 3.2 6.4 0.00 0.00 0.00 85 1016.3
20260503045343 3 42 3.2 4.8 0.00 0.00 0.00 85 1016.6
20260503044839 3 35 3.2 4.8 0.00 0.00 0.00 84 1016.7
20260503044336 3 63 3.2 6.4 0.00 0.00 0.00 84 1016.4
20260503043833 3 59 3.2 6.4 0.00 0.00 0.00 83 1016.7
20260503043330 3 53 4.8 6.4 0.00 0.00 0.00 83 1016.3
20260503042826 3 55 3.2 4.8 0.00 0.00 0.00 82 1016.5
20260503042323 3 55 3.2 4.8 0.00 0.00 0.00 81 1016.5
20260503041819 3 43 4.8 6.4 0.00 0.00 0.00 80 1016.5
20260503041317 4 55 4.8 8.0 0.00 0.00 0.00 79 1016.5
20260503040815 4 39 4.8 6.4 0.00 0.00 0.00 79 1016.5
20260503040312 4 37 4.8 8.0 0.00 0.00 0.00 78 1016.7
20260503035809 4 48 4.8 8.0 0.00 0.20 0.20 78 1016.7
20260503035306 5 47 3.2 9.7 0.00 0.20 0.20 77 1016.6
20260503034803 5 55 6.4 6.4 0.00 0.20 0.20 77 1016.7
20260503034300 5 35 8.0 9.7 0.00 0.20 0.20 76 1016.7
20260503033757 5 31 6.4 8.0 0.00 0.20 0.20 76 1016.6
20260503033255 5 56 6.4 9.7 0.00 0.20 0.20 75 1016.7
20260503032753 5 23 3.2 8.0 0.00 0.20 0.20 76 1016.6
20260503032251 5 47 3.2 11.3 0.00 0.20 0.20 76 1016.8
20260503031748 5 38 3.2 9.7 0.00 0.20 0.20 75 1016.8
20260503031246 5 37 6.4 6.4 0.00 0.20 0.20 75 1016.8
20260503030742 5 35 8.0 9.7 0.00 0.20 0.20 75 1016.9
20260503030239 5 22 8.0 11.3 0.00 0.20 0.20 74 1016.9
20260503025735 5 26 4.8 9.7 0.00 0.20 0.20 75 1016.8
20260503025233 5 50 6.4 8.0 0.00 0.20 0.20 75 1016.9
20260503024730 5 48 6.4 8.0 0.00 0.20 0.20 76 1016.8
20260503024227 5 18 1.6 8.0 0.00 0.20 0.20 75 1016.9
20260503023724 5 44 8.0 8.0 0.00 0.20 0.20 75 1017.1
20260503023220 5 31 4.8 8.0 0.00 0.20 0.20 76 1017.0
20260503022717 5 53 6.4 9.7 0.00 0.20 0.20 76 1017.2
20260503022216 5 50 4.8 6.4 0.00 0.20 0.20 76 1016.9
20260503021714 5 46 6.4 6.4 0.00 0.20 0.20 75 1016.9
20260503021210 5 57 6.4 8.0 0.00 0.20 0.20 75 1017.0
20260503020708 5 24 3.2 4.8 0.00 0.20 0.20 74 1017.1
20260503020205 5 15 3.2 4.8 0.00 0.20 0.20 73 1017.1
20260503015702 5 0 1.6 6.4 0.00 0.20 0.20 73 1017.0
20260503015159 5 19 3.2 6.4 0.00 0.20 0.20 73 1017.1
20260503014654 5 57 4.8 6.4 0.00 0.20 0.20 72 1017.1
20260503014152 5 65 4.8 6.4 0.00 0.20 0.20 73 1017.1
20260503013649 5 46 4.8 4.8 0.00 0.20 0.20 73 1016.8
20260503013147 5 48 3.2 6.4 0.00 0.20 0.20 73 1016.9
20260503012644 5 50 4.8 6.4 0.00 0.20 0.20 73 1016.9
20260503012141 5 42 3.2 4.8 0.00 0.20 0.20 73 1016.9
20260503011637 5 59 3.2 6.4 0.00 0.20 0.20 72 1017.0
20260503011134 5 58 4.8 4.8 0.00 0.20 0.20 72 1016.8
20260503010630 6 70 3.2 4.8 0.00 0.20 0.20 71 1016.6
20260503010128 6 57 3.2 6.4 0.00 0.20 0.20 71 1016.7
20260503005625 6 51 4.8 4.8 0.00 0.20 0.20 71 1016.8
20260503005122 6 48 4.8 4.8 0.00 0.20 0.20 70 1016.8
20260503004618 6 56 4.8 4.8 0.00 0.20 0.20 71 1016.7
20260503004117 6 44 4.8 6.4 0.00 0.20 0.20 70 1016.7
20260503003614 6 47 4.8 6.4 0.00 0.20 0.20 71 1016.6
20260503003110 6 42 4.8 6.4 0.00 0.20 0.20 70 1016.7
20260503002607 6 48 3.2 4.8 0.00 0.20 0.20 67 1016.6
20260503002104 6 38 1.6 3.2 0.00 0.20 0.20 67 1016.6
20260503001600 6 71 1.6 3.2 0.00 0.20 0.20 68 1016.7
20260503001058 6 54 3.2 3.2 0.00 0.20 0.20 69 1016.6
20260503000555 6 81 1.6 1.6 0.00 0.20 0.20 68 1016.7
20260503000052 6 80 1.6 3.2 0.00 0.20 0.20 67 1016.6
20260502235548 6 77 3.2 3.2 0.00 0.20 0.20 67 1016.5
20260502235046 6 74 0.0 3.2 0.00 0.20 0.20 67 1016.7
20260502234542 6 111 0.0 3.2 0.00 0.20 0.20 67 1016.7
20260502234040 6 60 0.0 3.2 0.00 0.20 0.20 66 1016.6
20260502233540 6 110 3.2 4.8 0.00 0.20 0.20 64 1016.7
20260502233037 6 69 0.0 3.2 0.00 0.20 0.20 65 1016.6
20260502232533 7 50 1.6 3.2 0.00 0.20 0.20 63 1016.6
20260502232031 7 54 3.2 3.2 0.00 0.20 0.20 65 1016.5
20260502231528 7 61 1.6 3.2 0.00 0.20 0.20 63 1016.7
20260502231026 7 347 1.6 3.2 0.00 0.20 0.20 61 1016.8
20260502230524 7 347 1.6 4.8 0.00 0.20 0.20 61 1016.6
20260502230022 7 83 3.2 3.2 0.00 0.20 0.20 61 1016.7
20260502225517 7 357 8.0 8.0 0.00 0.20 0.20 58 1016.7